Location: Dampvalley
(47.9094°N, 6.1967°E)
Time: 23:05:54
(UTC+00:00)

SO-50 - Visible Passes

Search period start: 29 November 2021 00:00
Search period end: 09 December 2021 00:00
Orbit: 599 x 685 km, 64.6° (Epoch: 29 November)

Date Brightness Start Highest point End Pass type
(mag) Time Alt. Az. Time Alt. Az. Time Alt. Az.
29 Nov ? 17:34:21 10° NW 17:39:11 82° NE 17:43:07 16° SE visible
29 Nov ? 19:16:04 10° WNW 19:19:02 16° WSW 19:20:51 14° SW visible
30 Nov ? 16:18:57 10° NNW 16:23:17 33° NE 16:27:41 10° ESE visible
30 Nov ? 17:59:17 10° NW 18:03:55 48° WSW 18:08:35 10° SSE visible
01 Dec ? 16:43:34 10° NNW 16:48:20 60° NE 16:53:09 10° SE visible
01 Dec ? 18:24:39 10° WNW 18:28:26 23° WSW 18:32:14 10° SSW visible
02 Dec ? 17:08:22 10° NW 17:13:10 69° SW 17:17:59 10° SSE visible
02 Dec ? 18:52:00 10° W 18:52:44 10° WSW 18:53:30 10° WSW visible
03 Dec ? 17:33:30 10° NW 17:37:47 32° WSW 17:42:06 10° S visible
04 Dec ? 16:17:32 10° NW 16:22:22 86° NE 16:27:15 10° SE visible
04 Dec ? 17:59:24 10° WNW 18:02:12 15° WSW 18:05:00 10° SW visible
05 Dec ? 16:42:29 10° NW 16:47:05 46° WSW 16:51:43 10° SSE visible
06 Dec ? 17:07:55 10° WNW 17:11:36 22° WSW 17:15:17 10° SSW visible
08 Dec ? 06:10:07 10° SSE 06:13:06 18° ESE 06:16:08 10° ENE visible
08 Dec ? 16:16:43 10° NW 16:20:57 31° WSW 16:25:11 10° S visible
